Location: Observatoire
(46.1952°N, 5.3391°E)
Time: 02:07:30
(UTC+01:00)

Explorer 7 - Pass Details

Date: 27 February 2026
Orbit: 430 x 541 km, 50.2° (Epoch: 9 March)

Event Time Altitude Azimuth Distance (km) Brightness Sun altitude
Rises 18:32:06 0° 286° (WNW) 2,480 11.6 -2.6°
Reaches altitude 10° 18:34:40 10° 267° (W) 1,624 11.3 -3.0°
Maximum altitude 18:37:16 18° 222° (SW) 1,212 9.4 -3.5°
Drops below altitude 10° 18:39:55 10° 177° (S) 1,665 9.4 -3.9°
Sets 18:42:36 0° 158° (SSE) 2,568 10.1 -4.4°
